{"data":{"norad_id":47230,"intl_designator":"2020-091D","name":"COSMOS 2548","alt_names":[],"object_type":"PAYLOAD","status":"ACTIVE","operator":null,"country":"CIS","launch_date":"2020-12-03","launch_site_code":"PLMSC","launch_vehicle":null,"mission":null,"orbit_class":"UNKNOWN","rcs_meters":null,"size_class":null,"mass_kg":null,"dimensions":null,"purposes":[],"wikipedia_slug":null,"has_3d_model":false,"image_url":null,"decayed_at":null,"tle_current":{"epoch":"2026-05-25T03:30:43.520256Z","epoch_age_seconds":69349,"freshness":"FRESH","line1":"1 47230U 20091D   26145.14633704 -.00000015  00000+0 -18085-3 0  9996","line2":"2 47230  82.4994 315.9824 0014195 242.3349 117.6290 12.42929065248193","mean_motion":12.42929065,"eccentricity":0.0014195,"inclination_deg":82.4994,"raan_deg":315.9824,"arg_perigee_deg":242.3349,"mean_anomaly_deg":117.629,"bstar":-0.00018085,"rev_number":24819,"period_min":115.855364602,"perigee_km":1483.0361078305,"apogee_km":1505.3857035348,"semimajor_km":7872.3479056826,"source":"CELESTRAK","updated_at":"2026-05-25T13:37:56.399480Z"}}}